Location: Dresden
(51.0493°N, 13.7381°E)
Time: 21:56:22
(UTC+02:00)

USA 238 DEB - Pass Details

Date: 12 March 2021
Orbit: 995 x 1217 km, 63.4° (Epoch: 18 April)

Event Time Altitude Azimuth Distance (km) Brightness Sun altitude
Rises 19:27:54 0° 218° (SW) 3,727 6.9 -13.8°
Reaches altitude 10° 19:30:27 10° 217° (SW) 2,797 6.2 -14.2°
Maximum altitude 19:37:02 82° 131° (SE) 1,064 3.6 -15.2°
Drops below altitude 10° 19:44:00 10° 45° (NE) 2,949 5.7 -16.2°
Sets 19:46:44 0° 45° (NE) 3,943 6.4 -16.6°
